Theta_e
307 303 308 308 309 309 308 309 309 309 308 307 308 308 309 306 302 307 307 306 302 302 302 310 313 312 315 318 318 317 319 319 320 320 321 321 322 321 323 325 330 331 334 350 350
309 304 308 309 309 310 310 311 311 310 310 308 307 307 307 304 307 310 311 310 309 309 314 312 311 312 314 316 318 319 318 318 319 321 320 321 320 320 322 322 325 331 346 350 353
310 307 307 309 309 310 311 311 312 311 311 308 308 306 304 303 307 315 311 311 312 312 312 314 311 314 313 315 317 319 319 319 318 318 317 319 320 320 322 324 323 324 338 349 352
311 309 306 309 309 310 311 311 312 311 311 309 309 305 303 307 310 312 308 310 312 312 313 315 312 313 314 315 315 319 319 318 318 317 316 317 318 320 320 322 324 328 332 347 351
311 309 306 309 310 311 312 313 312 312 311 309 309 306 306 309 310 309 309 307 306 310 313 315 315 311 314 314 314 317 318 318 318 317 316 316 318 319 320 320 329 325 340 347 350
311 310 307 309 310 312 313 314 313 313 312 310 310 307 308 312 311 310 310 309 310 309 311 314 314 313 313 314 316 314 315 316 318 319 317 317 318 318 319 319 321 323 322 332 347
310 310 308 310 312 313 314 315 314 314 312 310 311 308 310 310 311 311 312 310 310 311 310 312 314 313 312 314 314 315 316 317 317 319 319 318 318 319 318 319 320 323 323 330 336
309 310 309 311 312 314 315 315 315 314 312 311 311 309 312 308 309 311 310 311 311 310 310 308 310 314 313 313 313 315 316 317 317 317 318 319 320 319 318 319 320 321 321 330 337
307 310 310 311 313 314 315 315 314 313 312 311 310 310 313 311 312 313 312 312 311 309 308 309 308 312 314 314 315 314 316 316 316 318 318 320 320 319 318 318 320 320 321 328 338
305 309 311 311 313 314 314 314 314 313 312 311 310 311 312 314 313 313 313 312 312 310 308 309 310 312 314 315 316 314 315 316 316 318 318 320 320 320 319 319 319 320 321 325 338
304 305 311 312 314 314 315 314 315 315 313 315 315 314 314 314 314 314 314 313 311 313 314 308 311 313 313 314 314 315 314 316 316 316 319 318 320 320 320 319 319 320 320 322 337
303 304 311 312 314 314 314 316 315 313 315 315 314 313 313 313 315 316 314 313 313 314 312 311 312 311 311 312 314 317 314 316 317 317 318 320 319 320 320 321 319 320 320 322 336
303 304 311 312 313 313 314 315 314 313 317 315 314 313 315 313 316 317 315 313 313 313 313 312 313 312 312 311 317 316 317 319 319 317 317 319 321 319 320 320 320 320 320 321 333
303 304 311 312 314 311 315 313 313 313 320 316 315 316 315 315 317 317 315 315 314 315 313 313 313 314 314 316 316 315 315 320 324 319 316 319 321 321 320 320 321 320 321 328 335
304 307 312 311 310 313 311 313 313 314 322 315 315 315 315 317 317 318 316 316 316 316 315 316 315 315 316 315 315 313 317 321 322 317 318 319 321 321 320 319 320 322 322 325 334
304 310 312 312 312 310 312 313 314 320 318 315 314 314 316 318 318 317 316 315 315 317 317 316 314 315 317 316 315 315 317 323 322 320 320 320 320 321 320 321 322 322 322 326 334
304 311 311 309 310 311 313 315 319 318 313 317 315 315 317 319 318 318 319 319 318 319 320 318 317 316 317 318 317 318 322 323 321 321 320 320 319 323 320 321 323 323 323 328 335
304 311 313 306 309 314 315 318 313 312 314 314 315 314 317 319 318 320 319 321 318 318 319 321 321 319 318 319 318 319 323 321 320 319 320 320 319 323 323 321 320 322 324 329 334
306 312 309 306 308 310 314 311 313 313 313 315 315 314 315 317 317 318 318 321 319 319 322 322 320 317 319 318 318 320 324 322 324 321 321 319 321 324 324 322 322 323 324 328 332
306 314 308 305 307 311 312 309 310 311 312 313 315 314 315 315 316 315 317 314 313 315 320 320 322 317 317 318 319 321 320 320 323 321 321 320 322 325 324 323 324 324 326 330 334
306 314 305 303 308 310 312 310 310 310 310 311 314 315 314 315 315 314 315 314 311 314 318 321 322 318 318 319 320 319 322 322 325 326 323 323 326 330 332 331 328 324 325 330 335
307 311 304 306 309 309 310 309 308 310 309 311 313 313 314 314 314 313 317 315 311 312 320 322 323 320 318 319 319 318 320 322 324 323 325 322 331 331 332 332 331 330 330 332 335
307 308 307 307 309 310 309 310 309 310 310 311 311 311 312 313 313 312 313 314 311 312 318 322 325 322 320 319 318 320 320 321 323 324 325 325 328 329 330 331 332 331 330 330 338
307 308 307 307 306 309 310 310 310 309 309 308 310 311 311 311 311 312 312 312 310 310 315 320 324 325 324 319 319 320 320 321 322 323 322 324 326 329 331 332 333 333 333 330 332
305 308 306 309 307 308 309 310 310 310 308 308 310 310 309 310 311 314 312 311 311 310 315 320 325 324 322 321 319 319 320 319 321 321 321 322 322 331 332 331 331 332 333 329 328
305 305 305 307 307 308 308 309 310 309 307 309 310 309 309 311 311 312 312 312 311 313 316 318 320 323 323 321 320 319 319 320 320 320 321 323 327 331 329 328 329 328 328 331 330
303 303 305 306 307 308 307 308 308 308 307 307 308 309 311 311 309 309 310 311 310 311 312 316 321 324 324 321 321 320 319 319 320 320 321 324 329 330 329 327 322 322 322 319 327
Wind_Speed
29 23 19 17 16 16 16 16 17 18 19 17 15 14 14 16 14 13 11 8 5 6 8 8 7 10 14 16 19 16 14 20 29 28 22 20 19 24 26 27 16 17 12 3 11
29 24 18 16 14 15 16 16 18 18 19 17 17 15 14 14 13 7 2 6 7 3 3 7 9 12 18 20 16 16 17 27 20 21 15 25 15 18 21 26 30 19 7 11 17
30 26 17 15 13 13 14 15 17 19 20 16 16 15 12 11 6 3 1 5 7 5 5 4 9 11 19 18 27 26 24 18 22 22 16 19 21 18 22 19 27 31 22 16 20
32 28 16 15 13 12 13 14 17 19 20 15 16 14 10 4 3 2 7 6 5 4 4 4 9 16 15 20 22 24 24 29 21 19 18 22 24 22 27 22 16 20 29 21 23
33 28 16 15 14 12 13 15 17 20 20 14 15 13 6 4 1 4 7 7 6 6 8 7 11 15 18 13 21 24 24 20 26 22 22 22 26 19 25 25 8 7 8 19 22
35 28 16 16 14 12 12 15 18 20 19 13 14 10 3 6 3 4 7 9 7 8 11 10 8 13 12 20 17 13 24 27 20 29 26 19 22 24 24 21 18 14 12 17 21
34 28 15 16 14 11 11 15 19 20 18 11 13 7 7 7 4 6 11 9 8 9 12 13 11 11 8 12 24 18 19 16 23 23 26 23 23 30 29 28 28 21 15 13 19
33 28 16 16 14 12 13 16 19 19 15 8 13 5 5 7 7 11 9 9 8 7 10 10 12 16 16 16 11 15 20 19 21 25 25 20 30 27 31 29 21 19 16 13 15
32 28 17 16 14 13 14 17 20 19 10 11 4 4 2 4 7 8 6 6 5 4 7 8 10 15 14 16 15 19 18 25 23 20 22 24 24 22 32 30 28 23 18 15 14
31 29 17 15 14 14 14 17 16 13 6 6 3 4 5 7 9 8 4 5 5 3 3 10 11 12 14 13 17 16 22 21 23 21 26 30 24 11 17 21 27 27 24 18 16
31 30 17 14 15 15 14 14 10 4 6 10 12 12 13 8 12 4 5 4 6 7 9 9 10 13 19 19 20 22 20 21 18 22 19 30 25 25 14 11 24 27 28 22 19
31 30 17 13 14 12 13 7 9 11 11 9 11 14 15 9 8 4 5 6 7 9 4 6 13 15 6 8 18 27 19 21 18 18 23 17 26 26 25 19 15 23 28 26 21
34 31 15 12 14 12 13 7 9 7 7 3 6 9 6 6 10 12 7 7 10 12 8 13 6 11 11 14 19 24 17 16 19 22 24 13 19 24 27 25 21 17 26 28 26
37 29 9 11 8 16 7 13 6 3 5 6 3 2 4 10 7 4 9 9 6 10 9 9 5 11 14 16 21 19 21 10 22 16 15 20 12 22 26 24 23 23 26 28 27
38 23 6 9 13 12 15 9 4 1 4 10 8 6 12 9 15 6 6 9 15 13 7 3 5 11 14 17 17 12 7 16 16 16 18 21 12 21 21 20 26 23 28 30 27
35 16 8 15 17 18 11 6 3 5 4 7 13 19 14 7 9 5 7 11 13 14 15 14 9 10 15 11 13 10 12 25 13 12 13 18 19 13 21 26 25 24 28 29 27
28 9 13 21 19 15 10 6 4 4 13 10 24 23 16 6 9 6 12 11 9 7 6 10 16 13 13 12 13 5 7 8 10 8 11 16 13 8 22 20 21 22 27 26 26
25 5 14 26 18 13 7 9 5 10 11 18 17 19 8 12 6 11 12 11 6 9 12 5 4 14 12 10 9 17 16 5 14 11 10 12 9 6 3 16 24 23 24 23 24
17 5 16 25 16 15 12 5 7 12 15 16 20 12 13 14 10 8 9 14 8 11 4 5 1 8 11 11 11 15 19 10 6 3 11 10 4 6 7 13 14 17 24 24 23
12 3 19 22 16 11 6 3 7 9 15 13 16 10 20 18 14 15 7 11 6 13 20 6 3 8 8 10 11 15 8 4 5 7 10 8 9 11 13 13 13 19 16 20 20
11 2 17 26 11 10 4 6 8 14 17 10 16 18 18 14 20 20 6 3 13 15 22 8 4 9 8 9 13 9 9 5 6 6 1 8 8 6 9 6 8 17 22 19 20
7 3 18 21 9 5 7 8 12 10 14 8 10 12 12 19 16 12 6 1 13 17 11 6 4 5 11 9 9 10 9 8 2 2 6 2 7 7 8 8 5 11 10 12 18
9 4 11 14 6 8 9 6 7 11 13 8 8 10 11 16 11 11 12 8 19 13 12 8 3 4 6 6 8 10 7 6 4 7 6 2 8 2 9 9 10 7 10 13 14
7 5 4 11 11 8 9 8 12 12 12 15 11 10 16 18 9 10 10 5 19 17 18 5 6 6 5 6 13 10 7 8 8 3 1 12 12 5 7 10 11 11 6 8 15
10 4 4 6 8 12 8 7 12 12 6 13 5 13 17 10 20 4 17 18 12 13 14 8 5 11 7 1 4 8 11 9 9 4 4 7 4 7 6 8 10 14 9 5 15
7 7 6 9 8 10 1 10 13 15 8 9 11 18 17 15 14 21 19 15 7 8 11 11 3 6 3 2 7 8 8 9 8 3 5 2 6 6 5 7 10 12 14 14 8
9 7 4 2 8 6 7 10 14 17 8 11 15 17 16 13 24 31 31 26 18 17 11 8 7 5 2 0 8 9 10 8 5 6 3 2 10 8 6 8 11 9 10 12 14
Wind_Direction
4 1 360 358 357 358 5 2 356 354 349 343 336 326 322 328 331 322 289 257 249 271 253 276 268 215 213 217 219 228 234 235 234 231 244 240 240 222 235 244 230 223 240 168 167
5 0 359 357 355 356 360 0 354 350 347 338 336 329 332 334 329 310 174 56 80 51 332 257 234 212 212 216 211 216 227 237 245 250 229 248 229 231 218 230 228 223 182 163 162
3 1 356 357 351 351 354 353 352 348 345 335 335 334 343 345 314 158 306 21 38 19 304 278 224 223 225 219 216 220 241 242 241 252 267 255 247 232 229 232 222 220 203 184 173
3 359 355 355 349 346 346 344 346 346 344 332 334 340 350 352 340 221 310 325 315 306 265 268 221 222 231 229 227 237 241 244 266 235 244 246 250 235 234 233 250 219 224 190 187
3 359 356 354 349 342 341 342 340 341 341 328 334 341 2 261 268 305 348 327 308 254 248 255 243 230 234 239 236 234 240 236 239 249 239 248 244 241 232 228 188 137 176 194 196
1 359 356 355 350 342 338 340 338 336 335 324 333 331 318 251 243 327 325 304 288 266 249 236 246 240 268 244 234 247 239 248 240 236 245 241 244 234 232 223 217 216 210 204 200
359 358 356 354 349 342 337 337 336 332 330 322 330 323 276 255 240 309 313 296 277 269 252 241 246 226 232 251 243 252 256 241 234 239 236 242 252 238 228 218 220 223 217 215 203
358 357 352 352 347 339 338 334 330 328 328 320 328 318 258 225 278 303 285 291 273 266 247 244 239 245 247 254 261 242 242 242 228 220 233 223 247 228 224 226 213 213 208 213 203
356 355 347 346 342 336 334 331 328 328 326 317 337 291 235 282 299 308 258 277 269 265 244 231 223 231 241 241 247 232 233 225 236 213 214 209 243 246 214 221 223 217 214 207 201
353 352 343 337 337 335 331 331 331 332 343 340 278 266 230 313 312 296 260 241 248 240 212 217 212 227 232 222 233 225 226 240 223 220 211 221 228 252 211 218 227 223 218 207 201
351 348 337 332 336 334 336 343 330 239 275 269 293 276 303 310 303 272 239 238 228 238 269 198 221 235 240 240 240 263 237 230 233 223 216 225 228 225 219 214 221 217 214 210 200
350 344 331 328 332 330 334 320 331 308 302 289 264 267 277 279 289 249 222 241 216 268 224 200 234 263 249 262 276 256 237 238 221 223 227 230 226 234 224 235 225 217 210 206 192
347 343 328 328 331 335 328 297 321 318 274 281 279 282 306 252 290 291 221 255 262 278 251 252 267 211 237 229 251 238 225 237 227 214 213 227 232 214 226 224 228 221 209 202 196
346 345 335 343 5 339 330 318 324 299 270 41 5 347 297 311 276 249 234 261 243 277 296 268 203 239 243 226 234 212 226 237 261 202 193 216 216 205 217 217 222 207 199 196 195
350 351 356 2 341 341 318 323 312 297 286 1 353 310 301 301 292 190 224 234 263 270 250 265 239 239 231 237 230 226 316 246 246 187 208 185 249 183 202 205 207 210 197 197 193
356 4 14 1 352 335 334 318 325 241 351 342 332 324 312 332 282 306 252 234 269 277 258 255 209 235 252 269 225 138 244 247 212 187 214 176 225 153 185 196 198 199 195 192 189
360 22 22 8 345 338 333 319 267 12 343 330 328 330 318 321 343 255 285 250 254 278 234 207 225 228 246 231 201 207 227 180 183 191 202 174 214 21 191 195 197 192 184 186 185
357 344 359 359 355 355 324 272 330 7 339 336 326 321 351 19 324 320 314 282 242 282 299 288 198 203 183 229 173 208 226 298 173 187 127 157 219 122 285 181 200 191 175 179 183
3 38 6 359 357 346 308 357 0 347 336 325 318 333 345 9 310 329 317 285 0 330 289 316 98 165 168 208 228 209 220 257 314 336 142 172 158 115 146 158 191 192 181 179 180
17 57 2 358 357 352 314 355 339 346 334 320 320 335 328 338 326 331 338 22 340 325 302 286 264 180 168 225 237 268 219 201 229 180 147 173 171 106 141 161 175 191 174 170 176
21 332 353 349 22 21 39 344 323 334 344 325 317 319 333 334 329 330 50 273 349 307 315 276 281 148 167 212 201 207 220 266 319 319 146 152 110 43 82 81 141 171 180 169 174
17 345 340 6 25 8 16 337 323 327 334 311 309 320 350 326 326 325 354 19 334 323 303 317 302 207 196 169 263 226 262 231 325 144 7 179 92 69 61 86 117 139 160 161 169
352 335 348 22 30 15 355 334 324 322 332 322 309 334 332 323 327 321 348 16 330 341 350 335 276 206 171 182 211 254 221 260 12 301 24 245 119 90 35 47 57 81 123 148 155
1 351 11 43 43 347 355 5 341 329 314 335 294 308 338 328 312 294 341 6 320 307 327 271 285 322 346 57 163 212 234 228 231 265 106 62 123 151 41 23 19 22 64 134 151
16 39 0 330 0 342 336 325 342 352 328 322 308 345 337 322 318 51 326 329 6 288 335 2 330 328 324 71 229 204 190 193 221 304 273 70 81 84 58 33 14 4 15 107 143
15 353 323 292 316 323 22 351 329 341 320 316 315 326 320 306 297 301 314 320 328 296 347 342 293 290 272 262 219 229 204 197 222 188 254 323 101 85 66 50 43 28 34 44 107
7 338 332 300 328 313 7 330 320 324 311 314 314 310 313 324 312 294 284 278 259 282 301 301 328 5 270 181 176 214 215 196 199 234 297 233 76 121 81 57 34 33 52 67 78